Wind_Speed
20 20 20 21 20 18 18 18 19 20 19 19 20 21 21 22 23 23 24 25 24 24 24 24 23 23 22 23 24 25 26 26 26 26 26 26 25 25 25 26 26 26 26
21 20 21 20 20 20 19 19 19 19 19 20 21 22 22 22 24 24 24 24 24 23 24 24 23 23 22 23 24 25 26 26 26 25 25 26 26 26 25 25 25 26 25
22 22 21 21 21 20 19 19 20 20 21 21 21 22 22 23 24 24 24 24 23 23 23 23 23 23 23 23 23 24 25 26 26 25 26 26 25 26 26 26 26 26 26
23 22 22 23 22 21 21 20 20 21 21 22 22 23 23 23 24 24 23 24 24 24 24 24 24 24 23 23 24 25 26 26 27 27 27 27 27 26 26 27 27 26 26
24 23 23 23 22 21 21 21 21 21 22 23 23 23 24 24 25 24 24 24 24 24 24 25 25 25 25 25 25 26 26 27 27 27 27 27 27 28 28 27 28 27 27
25 24 24 24 23 23 24 23 23 23 23 24 24 24 25 26 25 25 26 26 26 26 26 25 26 26 25 25 25 25 25 26 26 25 26 27 27 27 26 27 27 27 27
23 24 24 25 24 25 25 25 26 25 23 23 23 24 25 26 26 26 27 27 28 28 27 26 26 26 26 25 25 25 26 26 25 25 25 26 26 26 26 26 25 25 25
22 23 25 24 25 26 26 25 25 25 25 24 24 25 25 26 26 27 28 28 27 27 26 26 27 27 26 25 25 25 26 26 26 26 25 25 25 25 25 25 26 26 26
23 23 24 24 25 25 26 26 25 25 26 25 25 25 25 26 26 27 28 28 28 27 26 26 27 26 26 25 25 26 24 24 24 24 24 25 26 26 25 25 26 27 27
23 22 23 24 24 24 25 25 25 25 25 25 25 25 25 25 26 27 28 28 28 27 26 26 27 27 26 26 25 25 24 23 23 23 24 24 25 25 26 27 26 27 27
22 22 22 22 22 23 25 24 24 24 24 25 25 25 25 25 26 27 27 27 27 27 26 26 26 26 26 26 25 24 24 23 24 23 24 24 24 25 25 26 26 27 27
21 21 21 21 22 23 23 23 23 23 23 24 24 25 25 25 26 26 27 26 26 26 26 25 25 26 25 25 24 24 24 24 24 24 23 24 24 24 24 25 25 26 26
21 21 22 22 22 23 22 21 22 22 23 24 24 25 26 26 26 26 26 25 25 25 25 25 25 25 24 24 24 24 23 24 23 23 23 23 23 23 24 24 23 24 24
21 22 23 22 22 22 22 21 21 22 23 24 24 25 25 25 25 25 25 24 23 23 23 23 23 23 23 23 23 23 22 22 23 23 22 22 21 22 23 22 22 23 23
20 20 21 21 21 21 20 21 22 22 22 23 24 23 23 23 23 23 24 23 23 22 22 21 21 21 22 22 21 21 21 21 21 21 22 21 21 22 23 23 23 22 22
19 19 19 19 20 20 20 21 22 22 22 22 23 23 23 23 23 23 23 22 22 21 21 21 21 21 21 20 20 20 20 20 20 20 20 20 21 22 22 22 22 22 22
18 18 18 19 20 20 21 21 22 22 21 21 22 21 21 22 22 22 21 21 20 20 20 21 21 20 20 19 19 19 18 18 18 18 18 19 19 18 19 19 19 19 19
17 18 19 19 19 20 20 20 21 21 20 19 19 19 19 19 20 19 19 20 20 20 20 19 19 19 19 18 18 18 17 17 17 17 17 17 17 17 17 17 17 17 17
16 17 17 17 17 17 17 18 18 18 18 18 17 17 18 17 17 18 18 18 18 18 18 18 17 17 16 16 16 16 16 16 15 15 15 15 16 15 15 16 16 16 16
15 16 16 15 15 16 16 17 17 17 17 17 17 16 16 15 15 15 16 16 16 17 17 16 15 14 14 14 13 13 14 13 13 13 13 13 12 13 13 13 13 13 13
14 13 13 14 14 15 15 15 15 15 15 15 15 15 14 14 14 14 14 14 14 14 14 13 12 12 12 12 12 12 11 11 11 11 12 11 11 10 10 10 10 11 11
11 12 13 13 13 13 13 12 12 12 12 12 13 12 12 12 12 11 11 12 11 11 10 10 10 10 9 10 10 10 9 9 9 9 9 9 9 9 9 9 9 9 9
9 10 11 11 11 10 10 10 10 9 9 10 9 9 10 9 10 9 10 10 9 9 8 8 8 9 8 8 8 8 8 8 7 7 7 8 8 8 8 8 8 8 8
8 8 9 9 9 8 8 9 8 8 8 8 8 8 8 8 8 8 8 8 8 8 8 7 7 7 7 7 7 7 7 7 7 6 6 6 6 7 7 6 6 6 7
7 8 8 8 8 7 8 7 8 8 7 7 7 8 8 7 7 7 7 7 7 6 6 6 6 6 6 5 5 5 5 5 5 5 4 5 5 6 6 6 6 5 5
6 7 7 7 6 6 7 7 7 7 7 6 6 7 7 7 7 7 7 6 6 5 5 5 4 4 5 5 5 4 3 3 4 4 4 3 3 4 5 5 6 5 5
Wind_Direction
276 279 284 284 285 279 276 271 267 266 265 265 269 272 277 281 284 285 285 285 287 286 285 285 283 279 276 270 265 265 264 265 265 265 262 261 260 260 262 262 261 261 261
277 282 287 286 283 279 274 271 271 267 266 268 272 274 277 282 285 284 285 285 286 287 285 284 282 278 276 273 270 270 266 265 264 262 260 259 259 261 263 263 262 261 260
276 280 286 288 285 279 277 275 272 270 269 271 271 273 277 279 282 283 283 284 286 287 286 284 283 281 278 276 271 269 266 263 263 262 262 260 259 261 262 263 263 261 260
280 284 287 287 285 280 277 274 273 272 271 271 272 275 278 280 281 284 284 285 285 285 285 284 282 280 277 275 272 269 267 265 264 263 262 259 258 259 261 261 260 260 260
281 283 287 289 284 278 275 276 275 273 272 272 273 276 278 279 281 284 285 287 287 286 286 285 282 279 277 275 273 270 267 265 264 262 259 259 258 259 259 258 259 260 260
279 281 285 286 280 276 275 274 275 276 277 277 276 277 278 279 281 283 285 286 287 286 285 285 281 279 276 273 273 271 268 265 262 260 259 259 259 258 258 258 258 258 258
280 282 284 285 281 279 277 273 274 276 277 277 277 278 279 279 280 281 283 285 286 285 283 283 281 276 274 272 272 272 270 266 262 260 259 258 257 257 257 257 255 255 255
279 281 283 281 280 279 277 276 275 274 277 277 278 278 279 278 280 283 284 284 285 285 284 282 279 278 275 273 272 273 270 267 263 259 258 258 257 257 256 255 254 254 255
280 283 283 281 279 277 277 275 275 274 275 275 277 277 278 279 281 283 284 283 282 282 282 281 279 277 274 272 273 273 272 267 265 262 259 258 257 257 256 256 256 255 254
279 281 281 278 277 276 276 274 274 275 275 275 275 274 276 278 280 283 284 283 281 280 280 279 277 275 272 271 272 271 269 268 267 265 261 259 259 258 258 257 257 256 255
280 280 280 277 277 276 277 273 272 274 276 275 273 273 276 279 280 281 282 281 280 279 278 279 277 275 272 270 271 269 267 267 266 267 264 261 260 258 257 256 255 255 256
279 279 281 280 277 278 279 279 275 275 276 276 274 275 278 279 280 281 282 281 280 279 278 277 275 274 273 271 270 268 267 267 266 266 265 261 259 258 256 256 255 255 256
277 277 280 281 280 281 279 278 277 276 278 278 276 275 278 279 280 281 281 281 280 280 277 275 274 273 272 271 270 269 267 267 267 266 265 262 259 256 257 258 257 256 256
277 277 278 280 282 284 282 281 280 278 279 281 280 278 278 279 279 280 280 280 281 281 280 277 274 273 272 271 271 270 269 268 267 267 265 264 261 257 257 257 256 257 257
282 282 283 283 285 284 284 286 286 283 282 283 282 280 280 280 280 280 280 279 279 280 279 277 275 275 274 272 270 268 269 269 269 267 265 264 263 259 257 257 256 256 257
285 286 287 287 288 288 289 289 290 289 288 287 286 285 284 283 282 281 280 280 279 279 277 276 276 275 274 272 270 267 267 268 268 267 265 264 265 261 258 256 256 257 257
288 289 289 288 291 293 294 292 291 291 290 290 289 287 287 285 282 280 280 279 279 279 278 277 277 275 271 268 269 268 267 267 267 264 263 263 264 262 258 256 256 254 255
288 290 290 289 292 294 294 292 291 292 292 293 291 289 288 287 284 282 281 278 277 278 278 278 278 275 271 267 266 266 266 267 266 264 263 263 262 261 258 255 254 252 253
291 293 293 291 293 295 297 296 295 294 294 294 292 289 287 286 285 284 283 280 278 278 277 277 277 273 268 264 264 265 265 265 266 264 265 265 263 260 258 255 252 249 251
294 294 294 294 295 297 299 298 296 295 295 296 296 293 290 288 287 286 285 283 280 280 279 277 274 272 269 267 264 264 263 263 263 264 263 264 262 260 258 252 250 249 249
300 298 298 298 300 300 301 300 299 298 297 299 297 296 293 292 292 291 289 287 286 283 279 276 273 273 267 265 263 262 264 262 260 263 262 261 260 257 255 254 251 247 247
305 302 305 307 307 305 305 306 306 307 308 306 302 297 294 295 295 296 296 296 292 285 281 276 274 272 265 261 262 264 265 262 259 259 258 256 252 250 249 248 245 243 243
312 313 315 314 316 315 315 317 315 314 315 314 313 310 306 304 303 303 303 301 297 287 283 278 275 272 266 260 260 260 261 255 255 256 255 252 252 246 242 242 241 239 236
321 327 329 326 324 327 328 326 325 326 323 323 324 321 318 314 311 311 311 309 305 295 286 280 275 270 263 255 254 257 258 254 251 249 250 246 241 236 233 233 231 229 227
322 328 331 330 331 336 339 339 340 339 338 341 339 335 329 323 320 320 319 319 320 309 293 287 278 263 252 250 247 243 246 244 246 247 243 236 235 232 226 223 224 220 217
332 333 336 335 340 345 344 344 346 350 354 351 351 349 344 343 338 334 331 330 333 328 316 304 286 264 255 250 246 242 239 233 232 229 232 231 225 215 207 204 208 206 205
Height
5850 5849 5848 5847 5846 5845 5844 5843 5843 5844 5844 5844 5844 5844 5843 5843 5842 5841 5840 5839 5837 5836 5835 5833 5832 5831 5830 5830 5830 5830 5830 5831 5831 5832 5833 5834 5835 5835 5836 5837 5838 5839 5839
5846 5845 5844 5843 5841 5840 5839 5838 5838 5838 5839 5839 5839 5839 5838 5838 5837 5836 5834 5833 5831 5830 5829 5828 5826 5825 5825 5824 5824 5824 5824 5824 5825 5826 5826 5828 5829 5829 5830 5831 5831 5832 5833
5841 5840 5840 5839 5836 5835 5834 5834 5833 5833 5833 5834 5833 5833 5833 5832 5831 5830 5829 5827 5826 5825 5823 5822 5821 5820 5819 5818 5818 5818 5818 5818 5818 5819 5820 5821 5822 5823 5824 5824 5825 5826 5826
5836 5835 5834 5833 5831 5830 5829 5828 5828 5828 5828 5828 5828 5827 5827 5826 5826 5824 5823 5822 5820 5819 5817 5816 5815 5813 5813 5812 5812 5812 5812 5812 5812 5812 5813 5814 5815 5816 5817 5818 5818 5819 5820
5831 5830 5829 5827 5826 5825 5824 5823 5822 5822 5822 5822 5822 5821 5821 5820 5819 5818 5817 5816 5814 5813 5811 5810 5809 5807 5806 5806 5805 5805 5805 5805 5805 5806 5806 5807 5808 5809 5810 5811 5812 5812 5813
5825 5824 5823 5821 5820 5820 5819 5818 5818 5817 5816 5816 5815 5815 5814 5813 5813 5812 5811 5809 5808 5806 5805 5803 5802 5801 5800 5799 5799 5798 5798 5798 5798 5798 5799 5800 5801 5802 5803 5804 5805 5806 5807
5819 5818 5817 5816 5815 5814 5813 5813 5812 5812 5811 5810 5809 5808 5807 5807 5806 5805 5804 5802 5801 5799 5798 5797 5795 5794 5793 5792 5791 5791 5791 5791 5791 5792 5792 5793 5794 5794 5795 5796 5798 5799 5800
5813 5812 5811 5810 5809 5808 5807 5807 5806 5805 5805 5804 5803 5802 5801 5800 5799 5797 5796 5795 5794 5792 5790 5789 5788 5787 5786 5785 5785 5784 5783 5784 5784 5784 5785 5786 5786 5787 5788 5789 5791 5792 5794
5807 5806 5805 5804 5803 5802 5801 5800 5799 5798 5798 5797 5796 5795 5793 5792 5792 5790 5789 5788 5786 5785 5783 5782 5781 5780 5779 5779 5778 5777 5776 5776 5777 5777 5778 5779 5779 5780 5781 5782 5784 5785 5787
5801 5801 5800 5798 5797 5796 5795 5793 5792 5791 5790 5789 5788 5787 5786 5785 5784 5783 5782 5780 5778 5777 5776 5775 5774 5773 5773 5772 5771 5771 5770 5770 5770 5770 5771 5771 5772 5773 5774 5775 5776 5778 5779
5795 5794 5793 5792 5791 5790 5788 5787 5786 5785 5783 5781 5781 5780 5779 5778 5777 5776 5774 5773 5771 5770 5769 5767 5767 5766 5765 5765 5764 5764 5764 5764 5764 5764 5764 5764 5765 5766 5767 5768 5769 5771 5772
5789 5788 5787 5786 5785 5784 5782 5781 5779 5777 5776 5775 5773 5773 5772 5771 5770 5768 5767 5765 5764 5763 5761 5760 5760 5759 5758 5758 5757 5757 5757 5757 5757 5757 5757 5758 5758 5759 5760 5761 5762 5763 5765
5783 5783 5781 5780 5779 5777 5775 5774 5772 5771 5769 5768 5766 5765 5764 5763 5762 5761 5759 5758 5757 5755 5754 5753 5752 5752 5752 5751 5751 5750 5751 5751 5751 5751 5751 5751 5751 5752 5753 5754 5755 5756 5758
5778 5777 5775 5774 5773 5771 5770 5768 5766 5765 5763 5761 5759 5758 5757 5756 5754 5753 5752 5751 5750 5748 5747 5746 5746 5745 5745 5744 5744 5744 5744 5744 5744 5745 5745 5745 5745 5746 5747 5748 5749 5750 5751
5772 5771 5769 5768 5767 5765 5764 5762 5760 5758 5756 5754 5752 5751 5749 5748 5747 5746 5745 5744 5743 5742 5741 5740 5739 5738 5738 5738 5738 5738 5738 5738 5738 5738 5739 5739 5739 5740 5741 5742 5743 5744 5745
5767 5766 5764 5762 5761 5759 5758 5756 5754 5752 5750 5748 5746 5744 5743 5741 5740 5739 5738 5737 5736 5735 5734 5734 5733 5732 5732 5732 5732 5732 5732 5732 5732 5732 5733 5733 5733 5734 5734 5735 5737 5738 5739
5762 5761 5759 5757 5756 5754 5752 5750 5748 5746 5744 5742 5739 5738 5736 5735 5733 5733 5732 5731 5730 5729 5728 5728 5727 5726 5726 5726 5726 5726 5727 5727 5727 5727 5727 5728 5728 5728 5728 5730 5731 5732 5734
5757 5755 5754 5752 5751 5749 5747 5745 5742 5740 5738 5736 5734 5732 5731 5729 5728 5727 5726 5725 5724 5723 5722 5722 5721 5720 5720 5720 5721 5721 5722 5722 5722 5723 5723 5723 5723 5723 5724 5725 5726 5728 5729
5752 5751 5749 5747 5746 5744 5742 5739 5737 5735 5733 5731 5729 5727 5725 5724 5722 5721 5720 5719 5718 5717 5717 5716 5716 5715 5715 5716 5716 5716 5717 5717 5718 5718 5718 5718 5719 5719 5719 5720 5721 5723 5725
5748 5746 5744 5743 5741 5738 5736 5735 5732 5730 5728 5726 5724 5722 5721 5719 5718 5716 5715 5714 5713 5712 5712 5711 5711 5711 5711 5711 5712 5713 5713 5714 5714 5714 5714 5715 5715 5715 5716 5717 5718 5720 5721
5744 5742 5740 5738 5736 5734 5732 5730 5728 5726 5724 5722 5720 5718 5717 5716 5714 5713 5711 5710 5709 5709 5708 5707 5707 5707 5708 5708 5709 5709 5710 5710 5711 5711 5711 5712 5712 5713 5713 5714 5716 5717 5718
5740 5738 5736 5734 5732 5730 5728 5726 5724 5722 5720 5718 5716 5715 5714 5712 5711 5710 5708 5707 5706 5706 5705 5705 5704 5704 5705 5706 5706 5707 5708 5708 5708 5709 5709 5709 5710 5711 5711 5712 5713 5715 5716
5737 5735 5733 5731 5729 5727 5725 5723 5721 5719 5717 5716 5714 5713 5712 5710 5709 5707 5706 5705 5704 5703 5703 5703 5702 5703 5703 5703 5704 5705 5705 5706 5706 5707 5707 5708 5708 5709 5710 5711 5712 5713 5714
5735 5733 5731 5729 5727 5725 5723 5721 5720 5718 5716 5714 5713 5711 5710 5709 5707 5706 5705 5704 5702 5702 5701 5701 5701 5701 5701 5702 5703 5703 5704 5704 5705 5705 5706 5706 5707 5708 5709 5710 5711 5712 5713
5733 5731 5729 5728 5726 5724 5722 5720 5719 5717 5715 5714 5712 5711 5709 5708 5706 5705 5704 5703 5701 5701 5700 5700 5699 5700 5700 5701 5701 5702 5703 5703 5704 5704 5705 5705 5706 5707 5708 5709 5710 5711 5713
5731 5730 5728 5726 5725 5723 5722 5720 5718 5717 5715 5713 5712 5710 5709 5707 5706 5705 5703 5702 5701 5700 5699 5699 5699 5699 5699 5700 5701 5701 5702 5702 5703 5704 5705 5705 5706 5707 5708 5709 5710 5711 5713